| time (UTC) | temp F | wind direction | speed MPH | gust MPH | rain 1hr in | rain 24hr in | rain mn in | humidity % | barometer mb |
| 20260507180408 | 58 | 248 | 3.0 | 15.0 | 0.00 | 1.12 | 1.12 | 79 | 1003.2 |
| 20260507175858 | 58 | 248 | 4.0 | 15.0 | 0.00 | 1.12 | 1.12 | 80 | 1003.2 |
| 20260507175347 | 58 | 270 | 4.0 | 11.0 | 0.00 | 1.12 | 1.12 | 79 | 1003.0 |
| 20260507174839 | 57 | 225 | 4.0 | 9.0 | 0.00 | 1.12 | 1.12 | 80 | 1002.7 |
| 20260507174327 | 57 | 315 | 2.0 | 8.0 | 0.00 | 1.12 | 1.12 | 81 | 1002.2 |
| 20260507173817 | 57 | 270 | 2.0 | 8.0 | 0.00 | 1.12 | 1.12 | 81 | 1002.1 |
| 20260507173525 | 57 | 248 | 2.0 | 8.0 | 0.00 | 1.12 | 1.12 | 81 | 1001.8 |
| 20260507172757 | 57 | 45 | 2.0 | 8.0 | 0.00 | 1.12 | 1.12 | 81 | 1001.2 |
| 20260507172510 | 56 | 270 | 3.0 | 7.0 | 0.00 | 1.12 | 1.12 | 81 | 1001.0 |
| 20260507171736 | 57 | 158 | 2.0 | 7.0 | 0.00 | 1.12 | 1.12 | 81 | 1000.9 |
| 20260507171226 | 57 | 248 | 3.0 | 11.0 | 0.00 | 1.12 | 1.12 | 80 | 1001.2 |
| 20260507170716 | 57 | 293 | 2.0 | 11.0 | 0.00 | 1.12 | 1.12 | 80 | 1001.8 |
| 20260507170206 | 57 | 248 | 3.0 | 11.0 | 0.00 | 1.12 | 1.12 | 80 | 1001.8 |
| 20260507165656 | 57 | 225 | 4.0 | 11.0 | 0.00 | 1.12 | 1.12 | 80 | 1002.0 |
| 20260507165147 | 57 | 225 | 4.0 | 11.0 | 0.00 | 1.12 | 1.12 | 81 | 1002.5 |
| 20260507164637 | 57 | 225 | 4.0 | 11.0 | 0.00 | 1.12 | 1.12 | 81 | 1002.7 |
| 20260507164347 | 57 | 293 | 2.0 | 13.0 | 0.00 | 1.12 | 1.12 | 81 | 1003.0 |
| 20260507163616 | 58 | 293 | 4.0 | 14.0 | 0.00 | 1.12 | 1.12 | 81 | 1003.1 |
| 20260507163106 | 58 | 203 | 5.0 | 14.0 | 0.00 | 1.12 | 1.12 | 81 | 1002.9 |
| 20260507162556 | 58 | 270 | 5.0 | 17.0 | 0.00 | 1.12 | 1.12 | 81 | 1003.3 |
| 20260507162046 | 58 | 293 | 5.0 | 17.0 | 0.00 | 1.12 | 1.12 | 81 | 1002.5 |
| 20260507161755 | 58 | 248 | 4.0 | 15.0 | 0.00 | 1.12 | 1.12 | 82 | 1001.8 |
| 20260507161025 | 58 | 248 | 4.0 | 15.0 | 0.00 | 1.12 | 1.12 | 83 | 1001.5 |
| 20260507160515 | 58 | 270 | 4.0 | 9.0 | 0.00 | 1.12 | 1.12 | 84 | 1001.2 |
| 20260507160005 | 59 | 338 | 3.0 | 9.0 | 0.00 | 1.12 | 1.12 | 86 | 1001.1 |
| 20260507155455 | 59 | 225 | 4.0 | 9.0 | 0.00 | 1.12 | 1.12 | 85 | 1001.2 |
| 20260507155206 | 59 | 248 | 4.0 | 9.0 | 0.00 | 1.12 | 1.12 | 85 | 1001.5 |
| 20260507154442 | 59 | 293 | 2.0 | 9.0 | 0.00 | 1.12 | 1.12 | 85 | 1001.3 |
| 20260507153924 | 59 | 203 | 5.0 | 9.0 | 0.00 | 1.12 | 1.12 | 85 | 1001.9 |
| 20260507153633 | 59 | 315 | 3.0 | 9.0 | 0.00 | 1.12 | 1.12 | 85 | 1002.0 |
| 20260507152904 | 59 | 270 | 2.0 | 9.0 | 0.00 | 1.12 | 1.12 | 84 | 1002.0 |
| 20260507152354 | 59 | 203 | 4.0 | 9.0 | 0.00 | 1.12 | 1.12 | 84 | 1001.4 |
| 20260507151844 | 59 | 203 | 6.0 | 11.0 | 0.00 | 1.12 | 1.12 | 85 | 1001.4 |
| 20260507151334 | 58 | 135 | 2.0 | 11.0 | 0.00 | 1.12 | 1.12 | 85 | 1001.7 |
| 20260507150824 | 58 | 225 | 4.0 | 11.0 | 0.00 | 1.12 | 1.12 | 86 | 1002.0 |
| 20260507150314 | 59 | 270 | 3.0 | 11.0 | 0.00 | 1.12 | 1.12 | 87 | 1001.8 |
| 20260507145804 | 59 | 270 | 5.0 | 11.0 | 0.00 | 1.12 | 1.12 | 87 | 1001.9 |
| 20260507145511 | 60 | 203 | 5.0 | 13.0 | 0.00 | 1.12 | 1.12 | 89 | 1002.5 |
| 20260507144743 | 60 | 248 | 4.0 | 13.0 | 0.00 | 1.12 | 1.12 | 89 | 1002.5 |
| 20260507144234 | 60 | 270 | 2.0 | 11.0 | 0.00 | 1.12 | 1.12 | 88 | 1002.4 |
| 20260507143724 | 60 | 293 | 3.0 | 6.0 | 0.00 | 1.12 | 1.12 | 89 | 1002.1 |
| 20260507143213 | 60 | 158 | 0.0 | 8.0 | 0.00 | 1.12 | 1.12 | 89 | 1001.3 |
| 20260507142703 | 60 | 225 | 0.0 | 8.0 | 0.00 | 1.12 | 1.12 | 88 | 1001.3 |
| 20260507142423 | 60 | 248 | 4.0 | 8.0 | 0.00 | 1.12 | 1.12 | 88 | 1001.8 |
| 20260507141643 | 60 | 248 | 3.0 | 6.0 | 0.00 | 1.12 | 1.12 | 88 | 1001.4 |
| 20260507141351 | 60 | 248 | 0.0 | 7.0 | 0.00 | 1.12 | 1.12 | 88 | 1001.0 |
| 20260507140625 | 60 | 248 | 1.0 | 8.0 | 0.00 | 1.12 | 1.12 | 88 | 1001.3 |
| 20260507140337 | 60 | 113 | 2.0 | 8.0 | 0.00 | 1.12 | 1.12 | 88 | 1001.6 |
| 20260507135603 | 60 | 293 | 2.0 | 8.0 | 0.00 | 1.12 | 1.12 | 88 | 1001.6 |
| 20260507135314 | 60 | 270 | 3.0 | 9.0 | 0.00 | 1.12 | 1.12 | 88 | 1001.8 |
| 20260507134542 | 60 | 293 | 2.0 | 9.0 | 0.00 | 1.15 | 1.12 | 88 | 1001.0 |
| 20260507134032 | 60 | 135 | 2.0 | 6.0 | 0.00 | 1.19 | 1.12 | 89 | 1001.2 |
| 20260507133523 | 60 | 315 | 2.0 | 8.0 | 0.00 | 1.19 | 1.12 | 89 | 1001.9 |
| 20260507133012 | 60 | 270 | 4.0 | 8.0 | 0.00 | 1.19 | 1.12 | 89 | 1002.2 |
| 20260507132722 | 60 | 270 | 0.0 | 2.0 | 0.00 | 1.19 | 1.12 | 90 | 1002.5 |
| 20260507131951 | 60 | 293 | 1.0 | 4.0 | 0.00 | 1.19 | 1.12 | 90 | 1002.7 |
| 20260507131441 | 60 | 248 | 1.0 | 4.0 | 0.00 | 1.19 | 1.12 | 90 | 1002.6 |
| 20260507130932 | 60 | 203 | 0.0 | 4.0 | 0.00 | 1.19 | 1.12 | 90 | 1003.3 |
| 20260507130421 | 60 | 23 | 1.0 | 4.0 | 0.00 | 1.19 | 1.12 | 90 | 1003.8 |
| 20260507125916 | 60 | 113 | 1.0 | 7.0 | 0.00 | 1.19 | 1.12 | 90 | 1003.9 |
| 20260507125401 | 60 | 225 | 0.0 | 7.0 | 0.00 | 1.19 | 1.12 | 90 | 1003.6 |
| 20260507124851 | 59 | 248 | 3.0 | 8.0 | 0.00 | 1.19 | 1.12 | 90 | 1002.6 |
| 20260507124341 | 59 | 90 | 3.0 | 8.0 | 0.00 | 1.19 | 1.12 | 90 | 1001.8 |
| 20260507123831 | 59 | 113 | 1.0 | 9.0 | 0.00 | 1.19 | 1.12 | 90 | 1001.5 |
| 20260507123321 | 59 | 270 | 5.0 | 9.0 | 0.00 | 1.19 | 1.12 | 91 | 1001.5 |
| 20260507122811 | 59 | 248 | 0.0 | 8.0 | 0.00 | 1.19 | 1.12 | 91 | 1001.1 |
| 20260507122300 | 59 | 203 | 2.0 | 8.0 | 0.00 | 1.19 | 1.12 | 91 | 1001.6 |
| 20260507121750 | 59 | 225 | 3.0 | 11.0 | 0.00 | 1.19 | 1.12 | 92 | 1001.6 |
| 20260507121241 | 59 | 225 | 4.0 | 11.0 | 0.00 | 1.19 | 1.12 | 92 | 1002.1 |
| 20260507120730 | 59 | 315 | 3.0 | 11.0 | 0.00 | 1.19 | 1.12 | 92 | 1001.8 |
| 20260507120220 | 59 | 270 | 7.0 | 11.0 | 0.00 | 1.19 | 1.12 | 92 | 1001.6 |
| 20260507115710 | 59 | 135 | 4.0 | 11.0 | 0.00 | 1.19 | 1.12 | 93 | 1001.3 |
| 20260507115200 | 59 | 248 | 2.0 | 11.0 | 0.00 | 1.19 | 1.12 | 94 | 1000.7 |
| 20260507114650 | 58 | 158 | 2.0 | 11.0 | 0.00 | 1.19 | 1.12 | 95 | 999.9 |
| 20260507114140 | 58 | 225 | 4.0 | 13.0 | 0.00 | 1.19 | 1.12 | 95 | 999.4 |
| 20260507113630 | 58 | 180 | 2.0 | 13.0 | 0.00 | 1.19 | 1.12 | 96 | 999.9 |
| 20260507113119 | 58 | 270 | 4.0 | 13.0 | 0.00 | 1.19 | 1.12 | 97 | 1001.1 |
| 20260507112609 | 58 | 315 | 7.0 | 13.0 | 0.00 | 1.19 | 1.12 | 98 | 1001.4 |
| 20260507112059 | 59 | 315 | 3.0 | 9.0 | 0.00 | 1.19 | 1.12 | 98 | 1001.5 |
| 20260507111813 | 59 | 248 | 3.0 | 9.0 | 0.00 | 1.19 | 1.12 | 98 | 1001.4 |
| 20260507111039 | 59 | 248 | 3.0 | 13.0 | 0.00 | 1.19 | 1.12 | 99 | 1000.8 |
| 20260507110529 | 59 | 203 | 7.0 | 13.0 | 0.00 | 1.19 | 1.12 | 99 | 1000.3 |
| 20260507110018 | 59 | 293 | 2.0 | 7.0 | 0.00 | 1.19 | 1.12 | 99 | 999.7 |
| 20260507105509 | 59 | 293 | 3.0 | 8.0 | 0.00 | 1.19 | 1.12 | 99 | 999.8 |
| 20260507104958 | 60 | 315 | 2.0 | 8.0 | 0.00 | 1.19 | 1.12 | 99 | 999.8 |
| 20260507104713 | 59 | 248 | 3.0 | 8.0 | 0.00 | 1.19 | 1.12 | 99 | 999.7 |
| 20260507103938 | 60 | 315 | 3.0 | 6.0 | 0.00 | 1.19 | 1.12 | 99 | 999.6 |
| 20260507102918 | 60 | 225 | 2.0 | 8.0 | 0.00 | 1.19 | 1.12 | 99 | 1000.3 |
| 20260507102410 | 60 | 293 | 4.0 | 7.0 | 0.00 | 1.19 | 1.12 | 99 | 1000.9 |
| 20260507102119 | 60 | 293 | 2.0 | 4.0 | 0.00 | 1.19 | 1.12 | 99 | 1000.9 |
| 20260507101356 | 60 | 248 | 2.0 | 4.0 | 0.00 | 1.19 | 1.12 | 99 | 1001.5 |
| 20260507100838 | 60 | 113 | 0.0 | 2.0 | 0.00 | 1.19 | 1.12 | 99 | 1001.0 |
| 20260507100327 | 60 | 135 | 0.0 | 6.0 | 0.00 | 1.19 | 1.12 | 99 | 1000.4 |
| 20260507095817 | 60 | 203 | 0.0 | 7.0 | 0.00 | 1.19 | 1.12 | 99 | 999.9 |
| 20260507095307 | 60 | 248 | 3.0 | 7.0 | 0.00 | 1.19 | 1.12 | 99 | 999.5 |
| 20260507094247 | 61 | 270 | 0.0 | 8.0 | 0.00 | 1.19 | 1.12 | 99 | 1000.4 |
| 20260507093737 | 61 | 225 | 2.0 | 8.0 | 0.01 | 1.19 | 1.12 | 99 | 999.8 |
| 20260507093226 | 61 | 270 | 3.0 | 8.0 | 0.01 | 1.19 | 1.12 | 99 | 999.7 |
| 20260507092720 | 61 | 180 | 2.0 | 6.0 | 0.01 | 1.19 | 1.12 | 99 | 999.4 |
| 20260507092206 | 61 | 270 | 2.0 | 4.0 | 0.01 | 1.19 | 1.12 | 99 | 999.0 |
| 20260507091656 | 61 | 293 | 2.0 | 7.0 | 0.01 | 1.19 | 1.12 | 99 | 999.2 |
| 20260507091419 | 61 | 270 | 2.0 | 7.0 | 0.01 | 1.19 | 1.12 | 99 | 999.5 |
| 20260507090636 | 62 | 248 | 1.0 | 7.0 | 0.01 | 1.19 | 1.12 | 99 | 999.7 |
| 20260507090356 | 62 | 270 | 4.0 | 7.0 | 0.01 | 1.19 | 1.12 | 99 | 1000.6 |
| 20260507085617 | 62 | 248 | 2.0 | 7.0 | 0.01 | 1.19 | 1.12 | 99 | 1000.2 |
| 20260507085105 | 62 | 180 | 3.0 | 9.0 | 0.02 | 1.19 | 1.12 | 99 | 999.6 |
| 20260507084556 | 62 | 203 | 2.0 | 9.0 | 0.02 | 1.19 | 1.12 | 99 | 999.8 |
| 20260507084046 | 62 | 248 | 2.0 | 7.0 | 0.01 | 1.18 | 1.11 | 99 | 1000.2 |
| 20260507083536 | 62 | 225 | 0.0 | 7.0 | 0.02 | 1.18 | 1.11 | 99 | 1000.3 |
| 20260507083247 | 62 | 248 | 2.0 | 6.0 | 0.02 | 1.18 | 1.11 | 99 | 999.6 |
| 20260507082732 | 62 | 203 | 0.0 | 4.0 | 0.02 | 1.18 | 1.11 | 99 | 998.9 |
| 20260507082005 | 62 | 203 | 2.0 | 4.0 | 0.02 | 1.18 | 1.11 | 99 | 998.8 |
| 20260507081719 | 62 | 270 | 1.0 | 4.0 | 0.02 | 1.18 | 1.11 | 99 | 999.4 |
| 20260507080945 | 62 | 180 | 0.0 | 4.0 | 0.02 | 1.18 | 1.11 | 99 | 999.6 |
| 20260507080435 | 62 | 0 | 0.0 | 6.0 | 0.02 | 1.18 | 1.11 | 99 | 999.8 |
| 20260507075924 | 62 | 158 | 2.0 | 6.0 | 0.02 | 1.18 | 1.11 | 99 | 999.1 |
| 20260507074904 | 62 | 135 | 3.0 | 4.0 | 0.03 | 1.17 | 1.10 | 99 | 998.8 |
| 20260507074354 | 62 | 135 | 3.0 | 7.0 | 0.03 | 1.17 | 1.10 | 99 | 998.8 |
| 20260507073844 | 62 | 158 | 4.0 | 7.0 | 0.03 | 1.16 | 1.09 | 99 | 999.2 |
| 20260507073334 | 62 | 158 | 4.0 | 7.0 | 0.03 | 1.16 | 1.09 | 99 | 999.8 |
| 20260507072830 | 62 | 158 | 4.0 | 7.0 | 0.04 | 1.16 | 1.09 | 99 | 998.9 |
| 20260507072315 | 62 | 180 | 2.0 | 7.0 | 0.05 | 1.16 | 1.09 | 99 | 999.8 |
| 20260507071805 | 63 | 113 | 2.0 | 7.0 | 0.07 | 1.16 | 1.09 | 99 | 999.9 |
| 20260507071520 | 63 | 203 | 2.0 | 6.0 | 0.08 | 1.16 | 1.09 | 99 | 999.3 |
| 20260507070743 | 63 | 113 | 2.0 | 6.0 | 0.10 | 1.16 | 1.09 | 99 | 999.8 |
| 20260507070235 | 63 | 113 | 3.0 | 6.0 | 0.12 | 1.16 | 1.09 | 99 | 999.7 |
| 20260507065723 | 63 | 248 | 1.0 | 4.0 | 0.11 | 1.15 | 1.08 | 99 | 1000.3 |
| 20260507065213 | 63 | 203 | 0.0 | 4.0 | 0.10 | 1.14 | 1.07 | 99 | 1001.1 |
| 20260507064703 | 64 | 203 | 1.0 | 8.0 | 0.12 | 1.14 | 1.07 | 99 | 1000.8 |
| 20260507064421 | 64 | 203 | 1.0 | 8.0 | 0.12 | 1.14 | 1.07 | 99 | 1000.9 |
| 20260507063643 | 64 | 135 | 3.0 | 8.0 | 0.12 | 1.13 | 1.06 | 99 | 1000.3 |
| 20260507063133 | 64 | 113 | 2.0 | 4.0 | 0.12 | 1.12 | 1.05 | 99 | 1001.4 |
| 20260507062622 | 64 | 158 | 1.0 | 2.0 | 0.12 | 1.12 | 1.05 | 99 | 1002.1 |
| 20260507062113 | 64 | 158 | 0.0 | 2.0 | 0.10 | 1.10 | 1.04 | 99 | 1002.5 |
| 20260507061603 | 64 | 180 | 0.0 | 2.0 | 0.10 | 1.09 | 1.02 | 99 | 1002.5 |
| 20260507061052 | 64 | 113 | 0.0 | 4.0 | 0.08 | 1.07 | 1.00 | 99 | 1002.5 |
| 20260507060542 | 64 | 225 | 0.0 | 4.0 | 0.05 | 1.05 | 0.98 | 98 | 1002.7 |
| 20260507060032 | 64 | 248 | 1.0 | 8.0 | 0.04 | 1.04 | 0.97 | 98 | 1003.0 |
| 20260507055522 | 64 | 270 | 2.0 | 9.0 | 0.05 | 1.04 | 0.97 | 98 | 1003.4 |
| 20260507055234 | 64 | 293 | 4.0 | 9.0 | 0.04 | 1.03 | 0.96 | 98 | 1003.1 |
| 20260507054502 | 65 | 270 | 4.0 | 7.0 | 0.05 | 1.02 | 0.95 | 98 | 1003.1 |
| 20260507053952 | 65 | 180 | 1.0 | 4.0 | 0.08 | 1.02 | 0.95 | 98 | 1001.8 |
| 20260507053706 | 65 | 158 | 1.0 | 2.0 | 0.12 | 1.01 | 0.94 | 98 | 1002.0 |
| 20260507052932 | 65 | 225 | 0.0 | 0.0 | 0.19 | 0.99 | 0.92 | 98 | 1001.9 |
| 20260507052422 | 64 | 180 | 0.0 | 0.0 | 0.37 | 0.99 | 0.92 | 98 | 1001.5 |
| 20260507051911 | 64 | 248 | 0.0 | 4.0 | 0.59 | 0.99 | 0.92 | 98 | 1001.1 |
| 20260507051617 | 65 | 248 | 0.0 | 4.0 | 0.82 | 0.99 | 0.92 | 98 | 1001.0 |
| 20260507050851 | 65 | 203 | 2.0 | 4.0 | 0.82 | 0.99 | 0.92 | 98 | 1000.6 |
| 20260507050341 | 65 | 203 | 0.0 | 4.0 | 0.82 | 0.99 | 0.92 | 98 | 1000.9 |
| 20260507045831 | 65 | 203 | 0.0 | 6.0 | 0.87 | 0.99 | 0.92 | 97 | 1001.0 |
| 20260507045321 | 65 | 158 | 0.0 | 6.0 | 0.88 | 0.99 | 0.92 | 97 | 1000.6 |
| 20260507044813 | 65 | 135 | 1.0 | 6.0 | 0.91 | 0.99 | 0.92 | 97 | 1000.8 |
| 20260507044309 | 65 | 203 | 2.0 | 6.0 | 0.90 | 0.97 | 0.90 | 97 | 1001.0 |
| 20260507043750 | 65 | 293 | 2.0 | 9.0 | 0.85 | 0.92 | 0.86 | 97 | 1000.7 |
| 20260507043507 | 65 | 248 | 2.0 | 9.0 | 0.78 | 0.85 | 0.78 | 96 | 1001.2 |
| 20260507042730 | 66 | 158 | 3.0 | 4.0 | 0.65 | 0.72 | 0.71 | 96 | 1001.0 |
| 20260507042220 | 66 | 158 | 2.0 | 8.0 | 0.49 | 0.56 | 0.49 | 95 | 1002.4 |
| 20260507040650 | 67 | 158 | 4.0 | 11.0 | 0.10 | 0.17 | 0.10 | 92 | 1000.0 |
| 20260507040139 | 69 | 158 | 4.0 | 11.0 | 0.06 | 0.13 | 0.08 | 90 | 1000.1 |
| 20260507035629 | 73 | 203 | 4.0 | 8.0 | 0.04 | 0.11 | 0.04 | 90 | 999.8 |
| 20260507034610 | 74 | 113 | 2.0 | 7.0 | 0.00 | 0.07 | 0.00 | 86 | 998.7 |
| 20260507034326 | 74 | 0 | 1.0 | 7.0 | 0.00 | 0.07 | 0.00 | 85 | 998.5 |
| 20260507033548 | 75 | 0 | 0.0 | 4.0 | 0.00 | 0.07 | 0.00 | 85 | 998.6 |
| 20260507033039 | 75 | 0 | 0.0 | 7.0 | 0.00 | 0.07 | 0.00 | 85 | 998.9 |
| 20260507032756 | 75 | 338 | 4.0 | 7.0 | 0.00 | 0.07 | 0.00 | 85 | 998.9 |
| 20260507032236 | 75 | 293 | 4.0 | 7.0 | 0.00 | 0.07 | 0.00 | 85 | 998.8 |
| 20260507031728 | 75 | 45 | 2.0 | 7.0 | 0.00 | 0.07 | 0.00 | 85 | 999.0 |
| 20260507030958 | 75 | 135 | 3.0 | 8.0 | 0.00 | 0.07 | 0.00 | 85 | 999.4 |
| 20260507030449 | 75 | 23 | 2.0 | 8.0 | 0.00 | 0.07 | 0.00 | 85 | 999.6 |
| 20260507025940 | 75 | 113 | 4.0 | 9.0 | 0.00 | 0.07 | 0.07 | 84 | 999.4 |
| 20260507025428 | 75 | 113 | 3.0 | 13.0 | 0.00 | 0.07 | 0.07 | 83 | 999.5 |
| 20260507024918 | 75 | 68 | 2.0 | 13.0 | 0.00 | 0.07 | 0.07 | 83 | 999.5 |
| 20260507023857 | 75 | 45 | 3.0 | 8.0 | 0.00 | 0.07 | 0.07 | 84 | 999.7 |
| 20260507023347 | 75 | 45 | 2.0 | 11.0 | 0.00 | 0.07 | 0.07 | 84 | 999.7 |
| 20260507022837 | 75 | 158 | 3.0 | 11.0 | 0.00 | 0.07 | 0.07 | 84 | 999.8 |
| 20260507022327 | 75 | 23 | 2.0 | 6.0 | 0.00 | 0.07 | 0.07 | 84 | 1000.1 |
| 20260507021818 | 75 | 0 | 0.0 | 7.0 | 0.00 | 0.07 | 0.07 | 84 | 1000.2 |
| 20260507021306 | 75 | 270 | 0.0 | 8.0 | 0.00 | 0.07 | 0.07 | 84 | 1000.1 |
| 20260507020757 | 75 | 203 | 2.0 | 8.0 | 0.00 | 0.07 | 0.07 | 84 | 999.9 |
| 20260507020247 | 75 | 68 | 3.0 | 8.0 | 0.00 | 0.07 | 0.07 | 84 | 1000.0 |
| 20260507015742 | 75 | 45 | 2.0 | 8.0 | 0.00 | 0.07 | 0.07 | 84 | 1000.3 |
| 20260507015227 | 75 | 68 | 2.0 | 7.0 | 0.00 | 0.07 | 0.07 | 85 | 1000.4 |
| 20260507014943 | 75 | 90 | 2.0 | 7.0 | 0.00 | 0.07 | 0.07 | 85 | 1000.6 |
| 20260507014207 | 75 | 68 | 1.0 | 6.0 | 0.00 | 0.07 | 0.07 | 85 | 1000.7 |
| 20260507013657 | 75 | 45 | 1.0 | 6.0 | 0.00 | 0.07 | 0.07 | 85 | 1000.5 |
| 20260507013147 | 75 | 45 | 2.0 | 4.0 | 0.00 | 0.07 | 0.07 | 85 | 1000.6 |
| 20260507012636 | 75 | 90 | 1.0 | 6.0 | 0.00 | 0.07 | 0.07 | 85 | 1000.8 |
| 20260507012344 | 75 | 0 | 2.0 | 7.0 | 0.00 | 0.07 | 0.07 | 84 | 1001.0 |
| 20260507011616 | 75 | 45 | 3.0 | 8.0 | 0.00 | 0.07 | 0.07 | 84 | 1000.9 |
| 20260507011106 | 75 | 23 | 3.0 | 8.0 | 0.00 | 0.07 | 0.07 | 84 | 1000.8 |
| 20260507010556 | 75 | 68 | 3.0 | 7.0 | 0.00 | 0.07 | 0.07 | 84 | 1000.4 |
| 20260507010046 | 75 | 23 | 1.0 | 7.0 | 0.00 | 0.07 | 0.07 | 84 | 1001.0 |
| 20260507005535 | 75 | 158 | 2.0 | 6.0 | 0.00 | 0.07 | 0.07 | 85 | 1001.0 |
| 20260507005025 | 75 | 113 | 2.0 | 7.0 | 0.00 | 0.07 | 0.07 | 85 | 1001.1 |
| 20260507004515 | 75 | 23 | 2.0 | 7.0 | 0.00 | 0.07 | 0.07 | 85 | 1001.0 |
| 20260507004005 | 75 | 338 | 1.0 | 6.0 | 0.00 | 0.07 | 0.07 | 86 | 1001.0 |
| 20260507003455 | 75 | 23 | 2.0 | 6.0 | 0.00 | 0.07 | 0.07 | 86 | 1001.2 |
| 20260507002945 | 74 | 0 | 2.0 | 6.0 | 0.00 | 0.07 | 0.07 | 86 | 1001.2 |
| 20260507002701 | 74 | 23 | 2.0 | 8.0 | 0.00 | 0.07 | 0.07 | 86 | 1000.9 |
| 20260507001925 | 74 | 45 | 1.0 | 8.0 | 0.00 | 0.07 | 0.07 | 86 | 1000.5 |
| 20260507001415 | 74 | 293 | 2.0 | 6.0 | 0.00 | 0.07 | 0.07 | 86 | 1001.0 |
| 20260507000905 | 74 | 23 | 2.0 | 8.0 | 0.00 | 0.07 | 0.07 | 87 | 1000.8 |
| 20260507000354 | 74 | 23 | 1.0 | 8.0 | 0.00 | 0.07 | 0.07 | 87 | 1000.6 |
| 20260506235844 | 73 | 45 | 2.0 | 6.0 | 0.00 | 0.07 | 0.07 | 87 | 1000.8 |
| 20260506235334 | 73 | 23 | 3.0 | 8.0 | 0.00 | 0.07 | 0.07 | 88 | 1001.0 |
| 20260506235046 | 73 | 45 | 2.0 | 8.0 | 0.00 | 0.07 | 0.07 | 88 | 1000.8 |
| 20260506234314 | 73 | 0 | 3.0 | 8.0 | 0.00 | 0.07 | 0.07 | 88 | 1000.8 |
| 20260506233804 | 73 | 315 | 0.0 | 8.0 | 0.00 | 0.07 | 0.07 | 88 | 1000.5 |
| 20260506233253 | 73 | 180 | 3.0 | 9.0 | 0.00 | 0.07 | 0.07 | 88 | 1000.2 |
| 20260506233010 | 72 | 23 | 4.0 | 9.0 | 0.00 | 0.07 | 0.07 | 88 | 999.7 |
| 20260506231726 | 71 | 23 | 2.0 | 8.0 | 0.00 | 0.07 | 0.07 | 90 | 1000.3 |
| 20260506231222 | 71 | 23 | 3.0 | 4.0 | 0.00 | 0.07 | 0.07 | 91 | 1000.4 |
| 20260506230704 | 70 | 68 | 1.0 | 4.0 | 0.00 | 0.07 | 0.07 | 91 | 1000.5 |
| 20260506230153 | 70 | 0 | 2.0 | 4.0 | 0.00 | 0.07 | 0.07 | 91 | 1000.6 |
| 20260506225910 | 69 | 158 | 0.0 | 4.0 | 0.00 | 0.07 | 0.07 | 91 | 1000.8 |
| 20260506225132 | 69 | 90 | 0.0 | 4.0 | 0.00 | 0.07 | 0.07 | 91 | 1001.0 |
| 20260506224622 | 69 | 90 | 1.0 | 2.0 | 0.00 | 0.07 | 0.07 | 91 | 1001.3 |
| 20260506224113 | 69 | 113 | 1.0 | 4.0 | 0.00 | 0.07 | 0.07 | 91 | 1001.4 |
| 20260506223602 | 69 | 113 | 1.0 | 4.0 | 0.00 | 0.07 | 0.07 | 91 | 1001.2 |
| 20260506223052 | 68 | 135 | 0.0 | 4.0 | 0.00 | 0.07 | 0.07 | 91 | 1001.3 |
| 20260506222542 | 68 | 68 | 0.0 | 2.0 | 0.00 | 0.07 | 0.07 | 91 | 1001.5 |
| 20260506222032 | 68 | 135 | 0.0 | 2.0 | 0.00 | 0.07 | 0.07 | 91 | 1001.7 |
| 20260506221522 | 68 | 113 | 0.0 | 2.0 | 0.00 | 0.07 | 0.07 | 91 | 1001.9 |
| 20260506221012 | 68 | 113 | 1.0 | 4.0 | 0.00 | 0.07 | 0.07 | 91 | 1001.7 |
| 20260506220502 | 68 | 158 | 0.0 | 4.0 | 0.00 | 0.07 | 0.07 | 91 | 1002.1 |
| 20260506215951 | 68 | 158 | 1.0 | 4.0 | 0.00 | 0.07 | 0.07 | 91 | 1001.8 |
| 20260506215443 | 68 | 180 | 0.0 | 4.0 | 0.00 | 0.07 | 0.07 | 90 | 1002.2 |
| 20260506214931 | 68 | 113 | 0.0 | 2.0 | 0.00 | 0.07 | 0.07 | 90 | 1002.4 |
| 20260506214646 | 69 | 180 | 0.0 | 2.0 | 0.00 | 0.07 | 0.07 | 90 | 1002.5 |
| 20260506213911 | 69 | 68 | 0.0 | 0.0 | 0.00 | 0.07 | 0.07 | 90 | 1003.0 |
| 20260506212850 | 69 | 135 | 0.0 | 0.0 | 0.00 | 0.07 | 0.07 | 90 | 1002.8 |
| 20260506212341 | 69 | 45 | 0.0 | 0.0 | 0.00 | 0.07 | 0.07 | 90 | 1002.7 |
| 20260506211831 | 69 | 68 | 0.0 | 0.0 | 0.00 | 0.07 | 0.07 | 89 | 1002.8 |
| 20260506211320 | 69 | 45 | 0.0 | 0.0 | 0.00 | 0.07 | 0.07 | 89 | 1002.9 |
| 20260506210811 | 70 | 180 | 0.0 | 0.0 | 0.00 | 0.07 | 0.07 | 89 | 1002.9 |
| 20260506210300 | 70 | 180 | 0.0 | 2.0 | 0.00 | 0.07 | 0.07 | 89 | 1002.8 |
| 20260506205750 | 70 | 158 | 0.0 | 2.0 | 0.00 | 0.07 | 0.07 | 89 | 1003.0 |
| 20260506205508 | 70 | 158 | 0.0 | 2.0 | 0.00 | 0.07 | 0.07 | 88 | 1003.0 |
| 20260506204730 | 70 | 135 | 0.0 | 2.0 | 0.00 | 0.07 | 0.07 | 88 | 1003.1 |
| 20260506204220 | 70 | 180 | 0.0 | 2.0 | 0.00 | 0.07 | 0.07 | 88 | 1002.9 |
| 20260506203710 | 70 | 158 | 0.0 | 4.0 | 0.00 | 0.07 | 0.07 | 88 | 1002.9 |
| 20260506203200 | 70 | 158 | 0.0 | 4.0 | 0.00 | 0.07 | 0.07 | 88 | 1002.9 |
| 20260506202655 | 70 | 158 | 0.0 | 4.0 | 0.00 | 0.07 | 0.07 | 88 | 1003.0 |
| 20260506202411 | 70 | 158 | 1.0 | 4.0 | 0.00 | 0.07 | 0.07 | 88 | 1002.9 |
| 20260506201629 | 69 | 180 | 0.0 | 4.0 | 0.00 | 0.07 | 0.07 | 88 | 1003.0 |
| 20260506201121 | 70 | 338 | 0.0 | 2.0 | 0.00 | 0.07 | 0.07 | 88 | 1003.0 |
| 20260506200609 | 69 | 113 | 0.0 | 2.0 | 0.00 | 0.07 | 0.07 | 88 | 1003.1 |
| 20260506200059 | 69 | 135 | 1.0 | 4.0 | 0.00 | 0.07 | 0.07 | 88 | 1003.3 |
| 20260506195548 | 70 | 113 | 2.0 | 4.0 | 0.00 | 0.07 | 0.07 | 88 | 1003.4 |
| 20260506195039 | 70 | 203 | 1.0 | 4.0 | 0.00 | 0.07 | 0.07 | 88 | 1003.4 |
| 20260506194528 | 70 | 113 | 0.0 | 4.0 | 0.00 | 0.07 | 0.07 | 88 | 1003.4 |
| 20260506194251 | 70 | 203 | 2.0 | 4.0 | 0.00 | 0.07 | 0.07 | 87 | 1003.7 |
| 20260506193511 | 71 | 68 | 0.0 | 4.0 | 0.00 | 0.07 | 0.07 | 87 | 1003.7 |
| 20260506193224 | 71 | 203 | 2.0 | 6.0 | 0.00 | 0.07 | 0.07 | 86 | 1003.6 |
| 20260506192448 | 72 | 135 | 2.0 | 6.0 | 0.00 | 0.07 | 0.07 | 84 | 1003.7 |
| 20260506191938 | 74 | 203 | 0.0 | 6.0 | 0.00 | 0.07 | 0.07 | 84 | 1003.7 |
| 20260506191428 | 73 | 90 | 2.0 | 4.0 | 0.00 | 0.07 | 0.07 | 84 | 1003.8 |
| 20260506190918 | 73 | 293 | 0.0 | 4.0 | 0.00 | 0.07 | 0.07 | 85 | 1003.8 |
| 20260506190407 | 73 | 45 | 1.0 | 4.0 | 0.00 | 0.07 | 0.07 | 84 | 1003.7 |
| 20260506185858 | 73 | 90 | 2.0 | 4.0 | 0.00 | 0.07 | 0.07 | 83 | 1004.0 |
| 20260506185347 | 74 | 158 | 1.0 | 4.0 | 0.00 | 0.07 | 0.07 | 82 | 1004.1 |
| 20260506184328 | 74 | 90 | 2.0 | 4.0 | 0.00 | 0.07 | 0.07 | 83 | 1004.1 |
| 20260506183817 | 74 | 113 | 2.0 | 4.0 | 0.00 | 0.07 | 0.07 | 83 | 1004.4 |
| 20260506183307 | 74 | 90 | 0.0 | 4.0 | 0.00 | 0.07 | 0.07 | 84 | 1004.4 |
| 20260506182757 | 74 | 135 | 2.0 | 4.0 | 0.00 | 0.07 | 0.07 | 84 | 1004.5 |
| 20260506182511 | 74 | 135 | 2.0 | 4.0 | 0.00 | 0.07 | 0.07 | 83 | 1004.6 |
| 20260506181737 | 74 | 90 | 0.0 | 4.0 | 0.00 | 0.07 | 0.07 | 82 | 1004.9 |
| 20260506181226 | 75 | 270 | 0.0 | 4.0 | 0.00 | 0.07 | 0.07 | 83 | 1005.0 |
| 20260506180716 | 74 | 90 | 2.0 | 4.0 | 0.00 | 0.07 | 0.07 | 83 | 1005.0 |